CZ-6A DEB, 60682

Orbit data source: Space-Track

CZ-6A DEB, 60682 is space debris in LEO originally from a launch on Tue, 06 Aug 2024 UTC launched from the Taiyaun Space Center, China (TSC). Debris objects in space refer to the collection of defunct objects orbiting the Earth. Examples of debris include non-operational satellites, rocket bodies, and fragments generated from explosions, collisions, or faulty payload assembly.

Loading next visibility...
Identifier
60682, 2024-140CK
Orbit
LEO
Country
Flag of CNCN / PRC
Related business
Manufacturer
SAST
Mission
Spacecraft
Bus & Motor
Unknown
Mass
Unknown
Launch date (UTC)
2024-08-06 (1 year ago)
Launch vehicle
Unknown
Launch site
Taiyaun Space Center, China (TSC)
Object type
Payload
Rocket body
Debris
Shape & HBR
Unknown shape, 0.1 m
Radar Cross Section
Small (<0.1 m²)

Expand to show TLE details & history
Last TLE update: 9 hours ago

TLE from 9 hours ago
0 CZ-6A DEB
1 60682U 24140CK  25349.79981237  .00000997  00000-0  42250-3 0  9993
2 60682  89.0080 295.4174 0030388  76.7007 283.7571 14.24454220 70255
Epoch: 2025-12-15T19:11Z
TLE epoch observation values (Epoch: 2025-12-15T19:11:43.788Z)
Latitude
-0.00007°
Longitude
-77.20824°
Altitude
808.255 km
Speed
7.452 km/s
True Right ascension
19h 41m 40s
True Declination
0° 00' 00"
Sunlit
Object was in daylight at epoch
Visualization orbit readout
Latitude
Unknown
Longitude
Unknown
Altitude
Unknown
Speed
Unknown
Apparent Right ascension
Unknown
Apparent Declination
Unknown
Sunlit
N/A
Visualization observer readout
Local Sidereal Time
02:28:34
Azimuth
Unknown
Elevation
Unknown
Doppler factor
Unknown
Orbital elements
Apogee altitude
829.108 km
Perigee altitude
785.438 km
Semi-major axis
7,185.41 km
Eccentricity
0.00304
Inclination
89.008°
RAAN
295.4174°
Arg. of periapsis
76.7007°
True anomaly
283.41856°
Mean anomaly
283.7571°
Eccentric anomaly
283.58786°
Mean motion
3.56341 °/min
Orbital period
101.03 mins
BSTAR
0.0004225
Loading maneuver chart data...
Computing Atmospheric mass density...
Loading historical data...
Loading historical data...
Loading historical data...
Loading historical data...
Loading historical data...
Loading historical data...
Loading historical data...

Documentation

Showing up to 5 results
|